Regional Weather Roundup
Issued by NWS

Home | Current Version | Previous Version | Text Only | Print | Product List | Glossary Off
Versions: 1 2 3 4 5 6 7 8 9 10 11 12 13 14 15 16 17 18 19 20 21 22 23 24 25 26 27 28 29 30 31 32 33 34 35 36 37 38 39 40 41 42 43 44 45 46 47 48 49 50

101
ASUS43 KMPX 270010
RWRMN
WEATHER ROUNDUP FOR MINNESOTA
NATIONAL WEATHER SERVICE TWIN CITIES/CHANHASSEN MN
700 PM CDT FRI AUG 26 2016


NOTE: "FAIR" INDICATES FEW OR NO CLOUDS BELOW 12,000 FEET WITH NO
SIGNIFICANT WEATHER AND/OR OBSTRUCTIONS TO VISIBILITY. N/A MEANS
CURRENT SKY AND/OR WEATHER CONDITIONS ARE NOT AVAILABLE.

MNZ060>063-068>070-270100-
   Twin Cities Metro

CITY           SKY/WX    TMP DP  RH WIND       PRES   REMARKS
TWIN CITIES    CLOUDY    70  55  59 SE6       30.12F
6HR MIN TEMP:  69; 6HR MAX TEMP:  72;

ST PAUL        CLOUDY    68  56  65 SE7       30.13F
CRYSTAL        CLOUDY    70  52  52 SW6       30.11F
BLAINE         CLOUDY    70  57  64 SE7       30.12F
LAKEVILLE      CLOUDY    64  59  82 SE3       30.13F
EDEN PRAIRIE   CLOUDY    70  55  59 CALM      30.12F
6HR MIN TEMP:  70; 6HR MAX TEMP:  73;

LAKEVILLE      CLOUDY    64  59  82 SE3       30.13F
SOUTH ST PAUL  CLOUDY    69  54  58 CALM      30.13F
LAKE ELMO      FAIR      68  59  73 SE3       30.14F
$$
MNZ001>005-007-008-013>017-022>024-027-028-270100-
   Northwest Minnesota

CITY           SKY/WX    TMP DP  RH WIND       PRES   REMARKS
BEMIDJI        CLOUDY    69  52  55 S5        30.07S
HALLOCK        CLOUDY    73  50  43 SW10      29.98S
ROSEAU         CLOUDY    70  57  64 S6        30.00F
WARROAD        MOSUNNY   70  55  60 CALM      30.01F
THIEF RVR FALL CLOUDY    69  54  58 S10       30.04S
CROOKSTON      CLOUDY    70  52  52 SW12      30.04S
FOSSTON        CLOUDY    66  52  59 S7        30.06F
DETROIT LAKES  CLOUDY    68  52  56 SW7       30.09F
MOORHEAD       CLOUDY    66  54  63 SW6       30.07S
PARK RAPIDS    CLOUDY    69  52  54 SW7       30.09F
MAHNOMEN       CLOUDY    68  52  56 SW7       30.05F
$$
MNZ006-009>011-018-025>026-270100-
   North Central Minnesota

CITY           SKY/WX    TMP DP  RH WIND       PRES   REMARKS
BAUDETTE       MOSUNNY   69  51  52 S9        30.03S
FLAG ISLAND    CLOUDY    72  54  53 CALM      29.99F
INTL FALLS     MOCLDY    69  46  43 SW6       30.04F
6HR MIN TEMP:  68; 6HR MAX TEMP:  74;

WASKISH        PTSUNNY   68  55  64 CALM      30.06S
BIG FORK       SUNNY     70  52  52 CALM      30.07F
LONGVILLE      MOSUNNY   66  52  59 S3        30.09S
GRAND RAPIDS   CLOUDY    69  54  58 S3        30.11S
CRANE LAKE     CLOUDY    70  48  46 S3        30.09S
ORR            CLEAR     68  46  45 CALM      30.06S
COOK           CLOUDY    70  52  52 CALM      30.09F
WALKER         FAIR      67  54  61 SW5       30.08S
$$
MNZ012-019>021-037-270100-
   Northeast Minnesota

CITY           SKY/WX    TMP DP  RH WIND       PRES   REMARKS
DULUTH         CLOUDY    69  54  58 S8        30.11F
6HR MIN TEMP:  68; 6HR MAX TEMP:  73;

ELY            CLOUDY    68  48  49 SW3       30.10S
HIBBING        CLOUDY    68  48  48 W3        30.09F
EVELETH        PTCLDY    70  49  46 S6        30.11S
DULUTH HARBOR  PTCLDY    73  55  53 S9        30.10F
TWO HARBORS    CLOUDY    70  55  60 E3        30.10F
SILVER BAY     CLEAR     64  50  59 CALM      30.11S
GRAND MARAIS     N/A     64  49  57 CALM      30.13F
G MARAIS ARPRT CLOUDY    55  48  76 S3        30.16F
$$
MNZ029>031-032-039>041-046>048-054>057-064-270100-
   West Central Minnesota

CITY           SKY/WX    TMP DP  RH WIND       PRES   REMARKS
FERGUS FALLS   CLOUDY    66  55  68 SW7       30.09F
WHEATON        MOSUNNY   70  59  68 SE5       30.09F
MORRIS         MOSUNNY   70  55  60 CALM      30.09F
ALEXANDRIA     PTSUNNY   68  52  56 S8        30.13F
ELBOW LAKE     PTSUNNY   67  55  66 S6        30.10F
WADENA         MOSUNNY   66  52  59 S6        30.10S
GLENWOOD       MOSUNNY   68  55  64 S7        30.13S
APPLETON       MOSUNNY   70  55  60 SE6       30.09F
BENSON         MOSUNNY   68  54  60 S3        30.11F
ORTONVILLE     PTSUNNY   68  55  64 SE6       30.08F
MADISON        CLOUDY    70  57  64 SE6       30.10F
WILLMAR        FAIR      70  57  64 CALM      30.13F
$$
MNZ033>034-036-042>043-049>051-058-059-270100-
   Central Minnesota

CITY           SKY/WX    TMP DP  RH WIND       PRES   REMARKS
ST CLOUD       MOSUNNY   69  55  60 S6        30.12S
6HR MIN TEMP:  69; 6HR MAX TEMP:  73;

SAUK CENTRE    FAIR      67  55  65 S3        30.12F
PAYNESVILLE    MOSUNNY   68  54  60 S5        30.13S
AITKIN         SUNNY     72  52  49 S5        30.10S
PINE RIVER     CLOUDY    70  54  56 S5        30.12F
BRAINERD       SUNNY     68  53  58 S8        30.11S
STAPLES        MOSUNNY   70  50  49 SW5       30.10F
LONG PRAIRIE   FAIR      66  54  63 SE3       30.12F
LITTLE FALLS   MOSUNNY   68  52  56 S5        30.12F
LITCHFIELD     CLOUDY    70  57  64 CALM      30.13F
BUFFALO        PTSUNNY   69  55  60 S3        30.14S
MAPLE LAKE     CLOUDY    68  58  69 CALM      30.14S
HUTCHINSON     CLOUDY    68  58  70 CALM      30.14F
$$
MNZ037-044-045-052-053-270100-
   East Central Minnesota

CITY           SKY/WX    TMP DP  RH WIND       PRES   REMARKS
PRINCETON      CLOUDY    70  55  60 S3        30.12F
MORA           MOCLDY    68  54  60 S3        30.14S
CAMBRIDGE      CLOUDY    72  55  56 S3        30.11F
RUSH CITY      PTCLDY    66  56  70 SE3       30.13S
MOOSE LAKE     MOCLDY    68  54  60 S6        30.10F
HINCKLEY       FAIR      68  55  64 S5        30.12F
CLOQUET        CLOUDY    68  54  60 S5        30.12S
MCGREGOR       CLOUDY    68  54  60 S6        30.11F
$$
MNZ071>073-080-081-089-090-097-098-270100-
   Southwest Minnesota

CITY           SKY/WX    TMP DP  RH WIND       PRES   REMARKS
MONTEVIDEO     CLOUDY    68  57  68 S5        30.13F
GRANITE FALLS  MOSUNNY   70  58  66 SE6       30.13F
CANBY          CLOUDY    70  58  66 SE7       30.11F
MARSHALL       MOSUNNY   69  57  65 SE7       30.11F
REDWOOD FALLS  CLOUDY    68  57  68 SE5       30.12F
OLIVIA         CLOUDY    70  57  64 S3        30.12F
PIPESTONE      PTSUNNY   70  55  60 SE3       30.12F
WINDOM         CLOUDY    66  57  72 SE3       30.12F
WORTHINGTON    CLOUDY    66  59  78 E7        30.12F
JACKSON          N/A     66  55  68 E3        30.12F
TRACY          CLOUDY    69  60  73 SE3       30.12F
SLAYTON        CLOUDY    66  59  77 SE5       30.13F
$$
MNZ065>067-074>077-082>085-091>093-270100-
   South Central Minnesota

CITY           SKY/WX    TMP DP  RH WIND       PRES   REMARKS
MANKATO        CLOUDY    66  55  68 S3        30.13S
NEW ULM          N/A     68  55  64 CALM      30.12F
ST JAMES       CLOUDY    63  55  77 CALM      30.13F
FAIRMONT       CLOUDY    67  61  81 E3        30.12F
GLENCOE        CLOUDY    69  60  73 CALM      30.13S
FARIBAULT      MOCLDY   N/A N/A N/A CALM      30.14S
OWATONNA       PTCLDY    68  57  68 CALM      30.13F
WASECA         CLOUDY    64  55  72 CALM      30.14F
ALBERT LEA     PTCLDY    66  57  72 CALM      30.13F
$$
MNZ078>079-086>088-094>096-270100-
   Southeast Minnesota

CITY           SKY/WX    TMP DP  RH WIND       PRES   REMARKS
ROCHESTER      CLOUDY    68  60  75 SE5       30.15F
6HR MIN TEMP:  68; 6HR MAX TEMP:  71;

RED WING       CLOUDY    68  59  73 CALM      30.13S
STANTON        CLOUDY    68  61  77 CALM      30.13S
DODGE CENTER   MOCLDY    66  57  72 CALM      30.14F
WINONA         CLOUDY    70  59  68 CALM      30.14S
AUSTIN         CLOUDY    66  59  77 CALM      30.12F
PRESTON        PTCLDY    65  59  80 CALM      30.15F
$$
ABBREVIATIONS USED IN REMARKS
   TC - TEMPERATURES IN CELSIUS
  WCI - WIND CHILL INDEX
   HX - HEAT INDEX
  VSB - VISIBILITY
$$




USA.gov is the U.S. government's official web portal to all federal, state and local government web resources and services.